一网星座-0319星 (ONEWEB-0319 )

导读

ONEWEB-0319是英国OneWeb卫星星座中的一颗低轨通信卫星,于2021年8月21日发射入轨。该卫星属于OneWeb全球宽带互联网星座计划的组成部分,运行在约1200公里高度的近地轨道,质量约175-200千克,工作在Ku波段,为全球用户特别是偏远地区提供低延迟、高带宽的互联网接入服务,同时其星座布局也具备潜在的军事应用价值。

基本信息
目录编号:
49105
目录名称:
ONEWEB-0319
国际标识:
2021-075AG
轨道中心:
EARTH
卫星名称:
一网星座-0319星
卫星全名:
一网星座-0319星 (ONEWEB-0319 )
卫星状态:
在轨 (已飞行1847 天)
发射日期:
2021-08-21 UTC
国别 :
英国 (GB)
星等 :
--
该卫星已列入 空间交会检测服务 Space Conjunction Data Service (SCDS) ,当前飞行风险评估等级: 无高风险
轨道信息
数据来源 国际轨道数据
星历时间: 2026-09-11T02:05:00+0800
23小时前
查看轨道信息
半长轴: 7571.847km
偏心率: 0.0002177
轨道倾角: 87.920°
近地点辐角 113.089°
升交点赤经 348.873°
平近点角 247.047°
近地点: 1192.061km
远地点: 1195.359km
周期: 109.285分钟
每日圈数: 13.176501
详细信息
平衡模式:
三轴稳定
覆盖范围:
全球
运营商:
一网卫星公司
运营商所在国:
英国
制造商(研发单位):
一网卫星公司
制造商所在国:
英国
使用方式:
暂无
卫星简介
OneWeb卫星网络由648颗重约125公斤的微型卫星组成,运行在1200公里的轨道上。 每颗卫星都能够提供至少每秒8千兆位的吞吐量,以使用其高吞吐量的Ku频段有效载荷为家庭和移动平台提供互联网接入。该卫星仍在工作。
2D轨道图
3D轨道图
轨道高度分析图
轨道倾角分析图
轨道综合分析图
查看轨道综合分析图
与全量物体交会距离演化趋势
与全量物体交会风险概率演化趋势